This demonstration page uses our WeatherBlox Daily Observations layout. Learn more.

Left ArrowRight Arrow

41.55636, -103.73856

Hourly Observations for July 26, 2018

Temp ( °F °C ) Dew Point ( °F °C ) Humidity (%) Winds ( mph kmh ) Pressure ( in mb ) Visibility ( mi km ) Precip ( " mm )
12:58 am 00:58 Partly Cloudy 60 15.7 58 14.3 91 91 NNW 8 13 30.21 1023 10 16 N/A
1:58 am 01:58 Mostly Cloudy 57 14 54 12.4 90 90 NNE 5 7 30.19 1022 10 16 N/A
2:58 am 02:58 Mostly Cloudy 57 13.8 55 12.6 93 93 NNW 3 6 30.18 1022 10 16 N/A
3:58 am 03:58 Clear 58 14.5 56 13.6 94 94 N N/A 30.17 1022 10 16 N/A
4:58 am 04:58 Mostly Cloudy with Mist and Fog 58 14.3 57 13.7 96 96 SSW 6 9 30.19 1022 6 10 N/A
5:58 am 05:58 Mostly Cloudy with Mist and Fog 57 14 56 13.4 96 96 WNW 5 7 30.21 1023 2 3 N/A
6:58 am 06:58 Mostly Cloudy with Patchy Fog 58 14.5 57 13.9 96 96 N 7 11 30.21 1023 0 0 N/A
7:58 am 07:58 Mostly Cloudy with Fog 59 15 58 14.5 97 97 N 3 6 30.22 1023 0 0 N/A
8:58 am 08:58 Cloudy 61 16 59 15.1 94 94 NNW 5 7 30.23 1024 10 16 N/A
9:58 am 09:58 Partly Cloudy 64 17.6 59 14.9 84 84 NW 3 6 30.21 1023 10 16 N/A
10:58 am 10:58 Sunny 69 20.6 59 14.8 70 70 N N/A 30.20 1023 10 16 0.01 0.25
11:58 am 11:58 Mostly Cloudy 73 22.7 57 13.9 58 58 E 7 11 30.17 1022 10 16 N/A
12:58 pm 12:58 Mostly Sunny 74 23.3 54 12 49 49 N N/A 30.19 1022 10 16 N/A
1:58 pm 13:58 Windy with Rain Showers Likely 68 20 58 14.6 71 71 NNE 25 41 30.21 1023 10 16 N/A
2:58 pm 14:58 Sunny 73 22.7 56 13.5 56 56 E 14 22 30.15 1021 10 16 N/A
3:58 pm 15:58 Sunny 76 24.7 50 10.2 40 40 N N/A 30.11 1020 10 16 N/A
4:58 pm 16:58 Sunny 75 23.8 51 10.6 43 43 ENE 8 13 30.13 1020 10 16 N/A
5:58 pm 17:58 Mostly Sunny 71 21.5 50 10.1 48 48 NNE 7 11 30.15 1021 10 16 N/A
6:58 pm 18:58 Mostly Sunny 69 20.3 54 12.3 60 60 NE 6 9 30.17 1022 10 16 N/A
7:58 pm 19:58 Mostly Sunny 68 20.1 55 12.7 63 63 E 8 13 30.15 1021 10 16 N/A
8:58 pm 20:58 Mostly Clear 64 17.7 55 13 74 74 ESE 13 20 30.15 1021 10 16 N/A
9:58 pm 21:58 Mostly Cloudy 63 17.4 58 14.4 83 83 SSE 13 20 30.17 1022 10 16 N/A
11:58 pm 23:58 Cloudy 60 15.6 58 14.3 92 92 NNW 6 9 30.21 1023 10 16 N/A

Powered by AerisWeather